Time,TemperatureF,DewpointF,PressureIn,WindDirection,WindDirectionDegrees,WindSpeedMPH,WindSpeedGustMPH,Humidity,HourlyPrecipIn,Conditions,Clouds,dailyrainin,SoftwareType,DateUTC
2013-09-10 00:03:00,64.9,59.9,30.12,WNW,292,0.0,-999.0,84,-99.99,,,0.00,Acu-Link.com,2013-09-10 04:03:00,
2013-09-10 00:18:00,64.4,59.5,30.12,NNW,337,0.0,-999.0,84,-99.99,,,0.00,Acu-Link.com,2013-09-10 04:18:00,
2013-09-10 00:34:00,64.2,59.3,30.12,WNW,292,0.0,-999.0,84,-99.99,,,0.00,Acu-Link.com,2013-09-10 04:34:00,
2013-09-10 00:49:00,63.9,59.3,30.12,WNW,292,0.0,-999.0,85,-99.99,,,0.00,Acu-Link.com,2013-09-10 04:49:00,
2013-09-10 01:04:00,63.3,58.7,30.12,WNW,292,0.0,-999.0,85,-99.99,,,0.00,Acu-Link.com,2013-09-10 05:04:00,
2013-09-10 01:19:00,62.8,58.2,30.12,North,0,0.0,-999.0,85,-99.99,,,0.00,Acu-Link.com,2013-09-10 05:19:00,
2013-09-10 01:34:00,62.6,58.0,30.12,South,180,0.0,-999.0,85,-99.99,,,0.00,Acu-Link.com,2013-09-10 05:34:00,
2013-09-10 01:50:00,62.4,57.8,30.11,SSW,202,0.0,-999.0,85,-99.99,,,0.00,Acu-Link.com,2013-09-10 05:50:00,
2013-09-10 02:05:00,62.1,57.5,30.11,SW,225,0.0,-999.0,85,-99.99,,,0.00,Acu-Link.com,2013-09-10 06:05:00,
2013-09-10 02:20:00,62.2,57.6,30.11,SSW,202,0.0,-999.0,85,-99.99,,,0.00,Acu-Link.com,2013-09-10 06:20:00,
2013-09-10 02:35:00,62.8,58.5,30.11,NNE,22,0.0,-999.0,86,-99.99,,,0.00,Acu-Link.com,2013-09-10 06:35:00,
2013-09-10 02:50:00,63.3,59.0,30.11,West,270,0.0,-999.0,86,-99.99,,,0.00,Acu-Link.com,2013-09-10 06:50:00,
2013-09-10 03:06:00,64.0,60.0,30.10,West,270,0.0,-999.0,87,-99.99,,,0.00,Acu-Link.com,2013-09-10 07:06:00,
2013-09-10 03:21:00,64.8,60.8,30.09,SE,135,0.0,-999.0,87,-99.99,,,0.00,Acu-Link.com,2013-09-10 07:21:00,
2013-09-10 03:36:00,65.1,61.1,30.10,South,180,0.0,-999.0,87,-99.99,,,0.00,Acu-Link.com,2013-09-10 07:36:00,
2013-09-10 03:51:00,65.3,61.3,30.10,South,180,0.0,-999.0,87,-99.99,,,0.00,Acu-Link.com,2013-09-10 07:51:00,
2013-09-10 04:07:00,65.1,61.1,30.10,SSW,202,0.0,-999.0,87,-99.99,,,0.00,Acu-Link.com,2013-09-10 08:07:00,
2013-09-10 04:23:00,65.1,61.1,30.11,WSW,247,0.0,-999.0,87,-99.99,,,0.00,Acu-Link.com,2013-09-10 08:23:00,
2013-09-10 04:39:00,65.1,61.1,30.10,West,270,0.0,-999.0,87,-99.99,,,0.00,Acu-Link.com,2013-09-10 08:39:00,
2013-09-10 04:54:00,66.4,62.4,30.11,SSW,202,0.0,-999.0,87,-99.99,,,0.00,Acu-Link.com,2013-09-10 08:54:00,
2013-09-10 05:09:00,66.7,62.7,30.11,ESE,112,0.0,-999.0,87,-99.99,,,0.00,Acu-Link.com,2013-09-10 09:09:00,
2013-09-10 05:24:00,67.1,63.1,30.11,South,180,1.1,-999.0,87,-99.99,,,0.00,Acu-Link.com,2013-09-10 09:24:00,
2013-09-10 05:39:00,67.1,63.4,30.11,ESE,112,0.0,-999.0,88,-99.99,,,0.00,Acu-Link.com,2013-09-10 09:39:00,
2013-09-10 05:54:00,67.5,63.8,30.11,ESE,112,1.7,-999.0,88,-99.99,,,0.00,Acu-Link.com,2013-09-10 09:54:00,
2013-09-10 06:10:00,67.5,63.8,30.11,South,180,0.0,-999.0,88,-99.99,,,0.00,Acu-Link.com,2013-09-10 10:10:00,
2013-09-10 06:25:00,67.8,64.1,30.13,WSW,247,0.0,-999.0,88,-99.99,,,0.00,Acu-Link.com,2013-09-10 10:25:00,
2013-09-10 06:40:00,68.0,64.3,30.13,SE,135,0.0,-999.0,88,-99.99,,,0.00,Acu-Link.com,2013-09-10 10:40:00,
2013-09-10 06:55:00,68.0,64.3,30.14,ESE,112,0.0,-999.0,88,-99.99,,,0.00,Acu-Link.com,2013-09-10 10:55:00,
2013-09-10 07:11:00,68.2,64.5,30.13,SSW,202,0.0,-999.0,88,-99.99,,,0.00,Acu-Link.com,2013-09-10 11:11:00,
2013-09-10 07:26:00,68.5,64.8,30.14,West,270,1.1,-999.0,88,-99.99,,,0.00,Acu-Link.com,2013-09-10 11:26:00,
2013-09-10 07:41:00,69.1,65.4,30.14,South,180,2.7,-999.0,88,-99.99,,,0.00,Acu-Link.com,2013-09-10 11:41:00,
2013-09-10 07:56:00,69.6,65.6,30.13,SW,225,3.7,-999.0,87,-99.99,,,0.00,Acu-Link.com,2013-09-10 11:56:00,
2013-09-10 08:11:00,71.4,66.6,30.13,SE,135,2.7,-999.0,85,-99.99,,,0.00,Acu-Link.com,2013-09-10 12:11:00,
2013-09-10 08:27:00,74.7,67.4,30.13,SE,135,5.3,-999.0,78,-99.99,,,0.00,Acu-Link.com,2013-09-10 12:27:00,
2013-09-10 08:42:00,74.1,66.4,30.13,East,90,2.2,-999.0,77,-99.99,,,0.00,Acu-Link.com,2013-09-10 12:42:00,
2013-09-10 08:57:00,76.6,68.1,30.13,South,180,4.7,-999.0,75,-99.99,,,0.00,Acu-Link.com,2013-09-10 12:57:00,
2013-09-10 09:12:00,76.8,67.9,30.13,South,180,2.7,-999.0,74,-99.99,,,0.00,Acu-Link.com,2013-09-10 13:12:00,
2013-09-10 09:27:00,77.9,68.1,30.13,South,180,3.7,-999.0,72,-99.99,,,0.00,Acu-Link.com,2013-09-10 13:27:00,
2013-09-10 09:43:00,78.4,68.2,30.12,ENE,67,3.2,-999.0,71,-99.99,,,0.00,Acu-Link.com,2013-09-10 13:43:00,
2013-09-10 09:58:00,79.9,68.8,30.13,SSE,157,6.8,-999.0,69,-99.99,,,0.00,Acu-Link.com,2013-09-10 13:58:00,
2013-09-10 10:13:00,81.3,69.7,30.14,SSW,202,3.2,-999.0,68,-99.99,,,0.00,Acu-Link.com,2013-09-10 14:13:00,
2013-09-10 10:28:00,81.9,70.3,30.14,West,270,1.7,-999.0,68,-99.99,,,0.00,Acu-Link.com,2013-09-10 14:28:00,
2013-09-10 10:43:00,82.6,70.1,30.15,SW,225,2.7,-999.0,66,-99.99,,,0.00,Acu-Link.com,2013-09-10 14:43:00,
2013-09-10 10:59:00,82.2,70.1,30.14,SSW,202,4.7,-999.0,67,-99.99,,,0.00,Acu-Link.com,2013-09-10 14:59:00,
2013-09-10 11:14:00,82.6,70.1,30.13,SSE,157,7.3,-999.0,66,-99.99,,,0.00,Acu-Link.com,2013-09-10 15:14:00,
2013-09-10 11:29:00,84.7,71.1,30.13,SSW,202,7.8,-999.0,64,-99.99,,,0.00,Acu-Link.com,2013-09-10 15:29:00,
2013-09-10 11:44:00,84.9,70.9,30.12,South,180,3.2,-999.0,63,-99.99,,,0.00,Acu-Link.com,2013-09-10 15:44:00,
2013-09-10 12:00:00,86.0,71.4,30.11,North,0,4.2,-999.0,62,-99.99,,,0.00,Acu-Link.com,2013-09-10 16:00:00,
2013-09-10 12:15:00,87.3,72.7,30.11,SW,225,2.2,-999.0,62,-99.99,,,0.00,Acu-Link.com,2013-09-10 16:15:00,
2013-09-10 12:30:00,87.4,72.3,30.10,ENE,67,2.2,-999.0,61,-99.99,,,0.00,Acu-Link.com,2013-09-10 16:30:00,
2013-09-10 12:46:00,87.6,72.0,30.10,SW,225,2.2,-999.0,60,-99.99,,,0.00,Acu-Link.com,2013-09-10 16:46:00,
2013-09-10 13:01:00,87.8,71.7,30.09,WSW,247,5.3,-999.0,59,-99.99,,,0.00,Acu-Link.com,2013-09-10 17:01:00,
2013-09-10 13:16:00,88.3,72.1,30.08,WSW,247,1.7,-999.0,59,-99.99,,,0.00,Acu-Link.com,2013-09-10 17:16:00,
2013-09-10 13:31:00,88.7,72.5,30.08,SE,135,4.7,-999.0,59,-99.99,,,0.00,Acu-Link.com,2013-09-10 17:31:00,
2013-09-10 13:47:00,89.6,73.3,30.07,WNW,292,3.7,-999.0,59,-99.99,,,0.00,Acu-Link.com,2013-09-10 17:47:00,
2013-09-10 14:02:00,90.0,73.2,30.07,South,180,5.8,-999.0,58,-99.99,,,0.00,Acu-Link.com,2013-09-10 18:02:00,
2013-09-10 14:17:00,89.6,72.8,30.06,SSW,202,2.7,-999.0,58,-99.99,,,0.00,Acu-Link.com,2013-09-10 18:17:00,
2013-09-10 14:32:00,89.6,72.8,30.05,West,270,4.2,-999.0,58,-99.99,,,0.00,Acu-Link.com,2013-09-10 18:32:00,
2013-09-10 14:47:00,90.9,73.5,30.05,WSW,247,4.2,-999.0,57,-99.99,,,0.00,Acu-Link.com,2013-09-10 18:47:00,
2013-09-10 15:02:00,89.8,72.5,30.04,SE,135,3.2,-999.0,57,-99.99,,,0.00,Acu-Link.com,2013-09-10 19:02:00,
2013-09-10 15:18:00,90.0,73.2,30.04,North,0,2.7,-999.0,58,-99.99,,,0.00,Acu-Link.com,2013-09-10 19:18:00,
2013-09-10 15:33:00,90.3,73.0,30.04,West,270,4.7,-999.0,57,-99.99,,,0.00,Acu-Link.com,2013-09-10 19:33:00,
2013-09-10 15:48:00,89.8,72.5,30.04,West,270,1.7,-999.0,57,-99.99,,,0.00,Acu-Link.com,2013-09-10 19:48:00,
2013-09-10 16:03:00,90.5,73.1,30.05,SSE,157,2.2,-999.0,57,-99.99,,,0.00,Acu-Link.com,2013-09-10 20:03:00,
2013-09-10 16:18:00,89.4,72.1,30.05,SSW,202,5.3,-999.0,57,-99.99,,,0.00,Acu-Link.com,2013-09-10 20:18:00,
2013-09-10 16:34:00,89.6,72.8,30.06,SSW,202,3.2,-999.0,58,-99.99,,,0.00,Acu-Link.com,2013-09-10 20:34:00,
2013-09-10 16:49:00,89.4,72.6,30.06,SSW,202,1.1,-999.0,58,-99.99,,,0.00,Acu-Link.com,2013-09-10 20:49:00,
2013-09-10 17:04:00,89.2,72.5,30.06,SW,225,8.9,-999.0,58,-99.99,,,0.00,Acu-Link.com,2013-09-10 21:04:00,
2013-09-10 17:19:00,88.5,71.8,30.06,SSW,202,3.2,-999.0,58,-99.99,,,0.00,Acu-Link.com,2013-09-10 21:19:00,
2013-09-10 17:34:00,87.6,71.0,30.06,West,270,1.7,-999.0,58,-99.99,,,0.00,Acu-Link.com,2013-09-10 21:34:00,
2013-09-10 17:50:00,87.4,71.3,30.06,NW,315,2.7,-999.0,59,-99.99,,,0.00,Acu-Link.com,2013-09-10 21:50:00,
2013-09-10 18:05:00,89.1,72.4,30.05,SSE,157,5.8,-999.0,58,-99.99,,,0.00,Acu-Link.com,2013-09-10 22:05:00,
2013-09-10 18:20:00,88.2,71.5,30.05,WSW,247,1.1,-999.0,58,-99.99,,,0.00,Acu-Link.com,2013-09-10 22:20:00,
2013-09-10 18:35:00,86.2,70.2,30.06,SSW,202,4.7,-999.0,59,-99.99,,,0.00,Acu-Link.com,2013-09-10 22:35:00,
2013-09-10 18:50:00,84.4,69.9,30.07,West,270,0.0,-999.0,62,-99.99,,,0.00,Acu-Link.com,2013-09-10 22:50:00,
2013-09-10 19:06:00,83.1,69.2,30.07,SE,135,0.0,-999.0,63,-99.99,,,0.00,Acu-Link.com,2013-09-10 23:06:00,
2013-09-10 19:21:00,81.9,69.4,30.07,NW,315,0.0,-999.0,66,-99.99,,,0.00,Acu-Link.com,2013-09-10 23:21:00,
2013-09-10 19:36:00,79.9,68.8,30.07,SSW,202,0.0,-999.0,69,-99.99,,,0.00,Acu-Link.com,2013-09-10 23:36:00,
2013-09-10 19:51:00,79.0,68.4,30.07,ESE,112,0.0,-999.0,70,-99.99,,,0.00,Acu-Link.com,2013-09-10 23:51:00,
2013-09-10 20:07:00,77.7,68.3,30.08,ESE,112,0.0,-999.0,73,-99.99,,,0.00,Acu-Link.com,2013-09-11 00:07:00,
2013-09-10 20:22:00,77.2,68.3,30.09,WNW,292,1.1,-999.0,74,-99.99,,,0.00,Acu-Link.com,2013-09-11 00:22:00,
2013-09-10 20:37:00,76.8,67.9,30.09,SSW,202,0.0,-999.0,74,-99.99,,,0.00,Acu-Link.com,2013-09-11 00:37:00,
2013-09-10 21:07:00,76.3,68.2,30.10,SSE,157,2.7,-999.0,76,-99.99,,,0.00,Acu-Link.com,2013-09-11 01:07:00,
2013-09-10 21:23:00,75.9,68.2,30.10,SSE,157,1.1,-999.0,77,-99.99,,,0.00,Acu-Link.com,2013-09-11 01:23:00,
2013-09-10 21:38:00,75.4,67.7,30.11,ESE,112,3.2,-999.0,77,-99.99,,,0.00,Acu-Link.com,2013-09-11 01:38:00,
2013-09-10 21:53:00,75.0,66.9,30.11,West,270,0.0,-999.0,76,-99.99,,,0.00,Acu-Link.com,2013-09-11 01:53:00,
2013-09-10 22:08:00,74.8,66.3,30.11,WNW,292,2.2,-999.0,75,-99.99,,,0.00,Acu-Link.com,2013-09-11 02:08:00,
2013-09-10 22:23:00,74.7,65.8,30.11,West,270,1.1,-999.0,74,-99.99,,,0.00,Acu-Link.com,2013-09-11 02:23:00,
2013-09-10 22:39:00,74.5,65.7,30.11,SE,135,2.7,-999.0,74,-99.99,,,0.00,Acu-Link.com,2013-09-11 02:39:00,
2013-09-10 22:54:00,73.9,65.1,30.10,West,270,2.2,-999.0,74,-99.99,,,0.00,Acu-Link.com,2013-09-11 02:54:00,
2013-09-10 23:09:00,73.6,64.8,30.10,SSE,157,1.7,-999.0,74,-99.99,,,0.00,Acu-Link.com,2013-09-11 03:09:00,
2013-09-10 23:24:00,73.2,64.4,30.10,ENE,67,0.0,-999.0,74,-99.99,,,0.00,Acu-Link.com,2013-09-11 03:24:00,
2013-09-10 23:39:00,72.7,64.3,30.10,East,90,0.0,-999.0,75,-99.99,,,0.00,Acu-Link.com,2013-09-11 03:39:00,
2013-09-10 23:55:00,72.5,64.5,30.10,SE,135,1.7,-999.0,76,-99.99,,,0.00,Acu-Link.com,2013-09-11 03:55:00,